TimePST,TemperatureF,Dew PointF,Humidity,Sea Level PressureIn,VisibilityMPH,Wind Direction,Wind SpeedMPH,Gust SpeedMPH,PrecipitationIn,Events,Conditions,WindDirDegrees,DateUTC
12:30 AM,35.6,33.8,93,30.36,1.8,SSW,4.6,-,N/A,,Clear,200,2013-02-01 08:30:00
12:32 AM,35.6,33.8,93,30.36,1.2,SSW,4.6,-,N/A,,Partly Cloudy,200,2013-02-01 08:32:00
12:38 AM,35.6,33.8,93,30.36,0.8,SSW,4.6,-,N/A,,Mist,200,2013-02-01 08:38:00
12:54 AM,35.1,33.1,92,30.37,0.8,SSW,3.5,-,N/A,,Mist,200,2013-02-01 08:54:00
1:23 AM,33.8,33.8,100,30.35,0.8,SW,3.5,-,N/A,,Mist,220,2013-02-01 09:23:00
1:33 AM,33.8,33.8,100,30.35,0.5,SSW,3.5,-,N/A,Fog,Fog,210,2013-02-01 09:33:00
1:54 AM,33.1,33.1,100,30.36,0.8,Calm,Calm,-,N/A,,Overcast,0,2013-02-01 09:54:00
2:11 AM,33.8,33.8,100,30.35,0.5,WSW,3.5,-,N/A,Fog,Fog,250,2013-02-01 10:11:00
2:19 AM,33.8,33.8,100,30.36,1.5,SW,4.6,-,N/A,,Overcast,230,2013-02-01 10:19:00
2:31 AM,33.8,33.8,100,30.35,0.8,SW,4.6,-,N/A,,Mist,230,2013-02-01 10:31:00
2:44 AM,35.6,33.8,93,30.35,0.2,SW,4.6,-,N/A,Fog,Fog,220,2013-02-01 10:44:00
2:54 AM,35.1,34.0,96,30.35,0.5,SW,3.5,-,N/A,Fog,Fog,220,2013-02-01 10:54:00
3:02 AM,35.6,33.8,93,30.35,0.2,Calm,Calm,-,N/A,Fog,Fog,0,2013-02-01 11:02:00
3:20 AM,35.6,33.8,93,30.35,0.5,SW,5.8,-,N/A,Fog,Fog,230,2013-02-01 11:20:00
3:41 AM,33.8,33.8,100,30.34,0.2,Calm,Calm,-,N/A,Fog,Fog,0,2013-02-01 11:41:00
3:54 AM,33.8,33.8,100,30.34,0.2,Calm,Calm,-,N/A,Fog,Fog,0,2013-02-01 11:54:00
4:04 AM,33.8,32.0,93,30.34,0.5,Calm,Calm,-,N/A,Fog,Fog,0,2013-02-01 12:04:00
4:23 AM,32.0,30.2,93,30.34,1.0,SW,3.5,-,N/A,,Mist,220,2013-02-01 12:23:00
4:31 AM,32.0,32.0,100,30.34,0.5,Calm,Calm,-,N/A,Fog,Fog,0,2013-02-01 12:31:00
4:54 AM,32.0,30.9,96,30.35,0.5,Calm,Calm,-,N/A,Fog,Fog,0,2013-02-01 12:54:00
5:13 AM,33.8,33.8,100,30.35,1.2,Calm,Calm,-,N/A,,Overcast,0,2013-02-01 13:13:00
5:16 AM,33.8,33.8,100,30.35,1.5,Calm,Calm,-,N/A,,Overcast,0,2013-02-01 13:16:00
5:34 AM,33.8,33.8,100,30.34,1.2,Calm,Calm,-,N/A,,Overcast,0,2013-02-01 13:34:00
5:40 AM,33.8,33.8,100,30.34,0.5,Calm,Calm,-,N/A,Fog,Fog,0,2013-02-01 13:40:00
5:54 AM,35.1,34.0,96,30.35,0.8,Calm,Calm,-,N/A,,Overcast,0,2013-02-01 13:54:00
6:03 AM,35.6,33.8,93,30.34,2.0,Calm,Calm,-,N/A,,Overcast,0,2013-02-01 14:03:00
6:12 AM,35.6,33.8,93,30.34,6.0,Calm,Calm,-,N/A,,Overcast,0,2013-02-01 14:12:00
6:54 AM,36.0,35.1,97,30.35,3.0,Calm,Calm,-,N/A,,Overcast,0,2013-02-01 14:54:00
7:26 AM,35.6,35.6,100,30.34,1.0,Calm,Calm,-,N/A,,Overcast,0,2013-02-01 15:26:00
7:54 AM,37.0,36.0,96,30.35,2.0,Calm,Calm,-,N/A,,Overcast,0,2013-02-01 15:54:00
8:09 AM,37.4,35.6,93,30.34,1.0,Calm,Calm,-,N/A,,Mist,0,2013-02-01 16:09:00
8:26 AM,37.4,37.4,100,30.35,0.8,Calm,Calm,-,N/A,,Mist,0,2013-02-01 16:26:00
8:54 AM,37.9,37.9,100,30.36,0.5,Calm,Calm,-,N/A,Fog,Fog,0,2013-02-01 16:54:00
9:11 AM,37.4,37.4,100,30.35,1.2,SE,3.5,-,N/A,,Overcast,130,2013-02-01 17:11:00
9:21 AM,37.4,37.4,100,30.35,0.8,Calm,Calm,-,N/A,,Overcast,0,2013-02-01 17:21:00
9:54 AM,39.0,39.0,100,30.36,0.5,Calm,Calm,-,N/A,Fog,Fog,0,2013-02-01 17:54:00
10:54 AM,41.0,39.9,96,30.36,0.5,Calm,Calm,-,N/A,Fog,Fog,0,2013-02-01 18:54:00
11:14 AM,41.0,39.2,93,30.35,1.5,NNE,5.8,-,N/A,,Overcast,30,2013-02-01 19:14:00
11:45 AM,41.0,39.2,93,30.34,1.0,NE,3.5,-,N/A,,Overcast,40,2013-02-01 19:45:00
11:54 AM,41.0,39.2,93,30.34,0.8,NNE,3.5,-,N/A,,Overcast,30,2013-02-01 19:54:00
12:14 PM,42.8,41.0,93,30.33,1.5,North,8.1,-,N/A,,Overcast,10,2013-02-01 20:14:00
12:54 PM,43.0,41.0,93,30.33,1.5,NNE,6.9,-,N/A,,Overcast,30,2013-02-01 20:54:00
1:19 PM,42.8,41.0,93,30.31,3.0,NE,8.1,-,N/A,,Overcast,40,2013-02-01 21:19:00
1:54 PM,45.0,42.1,90,30.30,5.0,NNE,5.8,-,N/A,,Overcast,20,2013-02-01 21:54:00
2:15 PM,44.6,42.8,93,30.29,6.0,NNE,6.9,-,N/A,,Overcast,30,2013-02-01 22:15:00
2:54 PM,45.0,42.1,90,30.29,8.0,NNE,8.1,-,N/A,,Overcast,20,2013-02-01 22:54:00
3:54 PM,46.9,43.0,86,30.27,10.0,NNE,4.6,-,N/A,,Overcast,30,2013-02-01 23:54:00
4:18 PM,46.4,42.8,87,30.26,10.0,Calm,Calm,-,N/A,,Mostly Cloudy,0,2013-02-02 00:18:00
4:54 PM,46.0,43.0,89,30.27,10.0,Calm,Calm,-,N/A,,Mostly Cloudy,0,2013-02-02 00:54:00
5:11 PM,44.6,42.8,93,30.25,10.0,Calm,Calm,-,N/A,,Mostly Cloudy,0,2013-02-02 01:11:00
5:54 PM,39.9,39.0,97,30.26,10.0,Calm,Calm,-,N/A,,Mostly Cloudy,0,2013-02-02 01:54:00
6:54 PM,39.2,37.4,93,30.27,7.0,Calm,Calm,-,N/A,,Scattered Clouds,0,2013-02-02 02:54:00
7:06 PM,37.4,37.4,100,30.26,0.5,SSW,3.5,-,N/A,Fog,Fog,200,2013-02-02 03:06:00
7:25 PM,35.6,33.8,93,30.27,0.2,SSW,4.6,-,N/A,Fog,Fog,210,2013-02-02 03:25:00
7:45 PM,35.6,33.8,93,30.26,7.0,Calm,Calm,-,N/A,,Scattered Clouds,0,2013-02-02 03:45:00
7:52 PM,33.8,33.8,100,30.26,1.2,SSE,3.5,-,N/A,,Overcast,160,2013-02-02 03:52:00
7:54 PM,33.1,33.1,100,30.27,1.2,SSE,3.5,-,N/A,,Overcast,160,2013-02-02 03:54:00
8:01 PM,35.6,33.8,93,30.26,0.2,SSE,4.6,-,N/A,Fog,Fog,150,2013-02-02 04:01:00
8:21 PM,37.4,37.4,100,30.27,0.2,South,3.5,-,N/A,Fog,Fog,170,2013-02-02 04:21:00
8:54 PM,39.0,39.0,100,30.28,0.2,Calm,Calm,-,N/A,Fog,Fog,0,2013-02-02 04:54:00
9:54 PM,41.0,39.9,96,30.29,0.2,Calm,Calm,-,N/A,Fog,Fog,0,2013-02-02 05:54:00
10:54 PM,42.1,42.1,100,30.29,0.2,SSE,3.5,-,N/A,Fog,Fog,150,2013-02-02 06:54:00
11:54 PM,42.1,41.0,96,30.29,0.2,South,4.6,-,N/A,Fog,Fog,170,2013-02-02 07:54:00